Location: Waco, TX
(31.5480°N, 97.1670°W)
Time: 10:54:39
(UTC-05:00)

ISS - All Passes

Search period start: 28 June 2017 00:00
Search period end: 08 July 2017 00:00
Orbit: 401 x 408 km, 51.6° (Epoch: 28 June)

Date Brightness Start Highest point End Pass type
(mag) Time Alt. Az. Time Alt. Az. Time Alt. Az.
28 Jun - 06:40:40 10° SSE 06:42:35 15° SE 06:44:31 10° E daylight
28 Jun - 08:15:49 10° WSW 08:18:49 33° NW 08:21:50 10° NNE daylight
28 Jun - 14:47:43 10° NNW 14:50:21 22° NE 14:52:58 10° E daylight
28 Jun - 16:24:00 10° WNW 16:26:47 25° SW 16:29:33 10° S daylight
29 Jun - 07:23:19 10° SW 07:26:34 76° NW 07:29:51 10° NE daylight
29 Jun - 13:56:25 10° N 13:57:55 13° NNE 13:59:27 10° ENE daylight
29 Jun - 15:31:25 10° NW 15:34:40 60° SW 15:37:54 10° SSE daylight
30 Jun - 06:31:17 10° SSW 06:34:24 44° SE 06:37:31 10° ENE daylight
30 Jun - 08:09:04 10° WNW 08:11:02 15° NW 08:12:59 10° N daylight
30 Jun - 14:39:13 10° NW 14:42:27 56° NE 14:45:42 10° ESE daylight
01 Jul - 05:39:52 10° S 05:42:17 19° SE 05:44:43 10° E visible
01 Jul - 07:15:49 10° W 07:18:37 26° NW 07:21:26 10° NNE daylight
01 Jul - 13:47:17 10° NNW 13:50:09 27° NE 13:52:59 10° E daylight
01 Jul - 15:24:02 10° W 15:26:28 19° SW 15:28:54 10° S daylight
02 Jul - 06:23:06 10° WSW 06:26:17 55° NW 06:29:31 10° NE daylight
02 Jul - 12:55:42 10° N 12:57:43 15° NE 12:59:44 10° ENE daylight
02 Jul - 14:31:12 10° WNW 14:34:21 43° SW 14:37:28 10° SSE daylight
03 Jul - 05:30:51 10° SSW 05:34:03 61° SE 05:37:17 10° NE visible
03 Jul - 07:09:22 10° WNW 07:10:47 12° NNW 07:12:14 10° N daylight
03 Jul - 13:38:51 10° NW 13:42:08 77° NE 13:45:24 10° SE daylight
04 Jul - 04:39:08 10° S 04:41:53 25° SE 04:44:38 10° ENE visible
04 Jul - 06:15:45 10° W 06:18:19 21° NW 06:20:53 10° NNE daylight
04 Jul - 12:46:46 10° NNW 12:49:48 34° NE 12:52:50 10° ESE daylight
04 Jul - 14:24:06 10° W 14:26:02 15° SW 14:27:58 10° SSW daylight
05 Jul - 03:48:32 10° SSE 03:49:46 12° SE 03:51:01 10° ESE visible
05 Jul - 05:22:49 10° WSW 05:25:55 41° NW 05:29:02 10° NNE visible
05 Jul - 11:55:01 10° N 11:57:23 18° NE 11:59:45 10° E daylight
05 Jul - 13:30:55 10° WNW 13:33:54 32° SW 13:36:52 10° SSE daylight
06 Jul - 04:30:22 10° SW 04:33:36 84° SE 04:36:52 10° NE visible
06 Jul - 06:10:04 10° NW 06:10:28 10° NNW 06:10:51 10° NNW daylight
06 Jul - 11:04:02 10° NNE 11:04:51 11° NNE 11:05:40 10° NE daylight
06 Jul - 12:38:23 10° NW 12:41:40 79° SW 12:44:57 10° SE daylight
07 Jul - 03:38:24 10° SSW 03:41:22 34° SE 03:44:21 10° ENE visible
07 Jul - 05:15:38 10° W 05:17:55 17° NW 05:20:11 10° N visible
07 Jul - 11:46:11 10° NNW 11:49:21 44° NE 11:52:30 10° ESE daylight
07 Jul - 13:24:25 10° WSW 13:25:29 11° SW 13:26:33 10° SW daylight
